Flag for Germany Weather past 2 weeks in Aachen, North Rhine-Westphalia, Germany

Now
72 °F

Overcast.


Feels Like: 74 °F
Forecast: 53 / 60 °F
Wind: 3 mph from Southwest

Location: Maastricht Airport Zuid Limburg

Current Time: Sep 20, 2014 at 2:16:21 PM

Latest Report: Sep 20, 2014 at 1:00 PM


Visibility: 8 mi

Pressure: 29.96 "Hg

Humidity: 73%

Dew point: 63 °F

Location of AachenLocation

Historic Weather in Aachen — Graph

°F

Aachen temperature yesterday

Maximum temperature yesterday: 77 °F (at 4:00 PM)
Minimum temperature yesterday: 59 °F (at 5:00 AM)
Average temperature yesterday: 67 °F

Past Weeks' High & Low Weather Summary

 TemperatureHumidityPressure
High77 °F (Sep 19, 4:00 PM)100% (Sep 8, 5:00 AM)30.27 "Hg (Sep 8, 5:00 AM)
Low47 °F (Sep 12, 7:00 AM)51% (Sep 17, 3:00 PM)29.80 "Hg (Sep 18, 5:00 PM)
Average62 °F83%30.02 "Hg
* Reported Sep 5 1:00 PM — Sep 20 1:00 PM, Aachen, Weather by CustomWeather, © 2014

Note: Actual official high and low records may vary slightly from our data, if they occured in-between our weather recording intervals... More about our weather records

Advertising

Aachen weather history for previous 24 hours

 ConditionsComfort  
Time TempWeatherWind HumidityBarometerVisibility
1:00 PM
Sep 20
72 °FOvercast.3 mph73%29.96 "Hg8 mi
12:00 PM71 °FOvercast.5 mph79%29.96 "Hg9 mi
11:00 AM69 °FOvercast.3 mph85%29.96 "Hg9 mi
10:00 AM65 °FOvercast.3 mph89%29.95 "Hg9 mi
9:00 AM63 °FSunny.5 mph91%29.94 "Hg9 mi
8:00 AM62 °FSunny.5 mph94%29.94 "Hg10 mi
7:00 AM62 °FOvercast.5 mph93%29.93 "Hg10 mi
6:00 AM63 °FOvercast.5 mph93%29.93 "Hg12 mi
5:00 AM63 °FOvercast.5 mph93%29.91 "Hg11 mi
4:00 AM63 °FOvercast.5 mph94%29.92 "Hg11 mi
3:00 AM64 °FOvercast.3 mph93%29.91 "Hg11 mi
2:00 AM64 °FPassing clouds.5 mph92%29.91 "Hg11 mi
1:00 AM65 °FPassing clouds.3 mph91%29.92 "Hg9 mi
12:00 AM64 °FPassing clouds.2 mph92%29.92 "Hg10 mi
10:00 PM
Sep 19
64 °FClear.1 mph94%29.91 "Hg13 mi
9:00 PM67 °FClear.1 mph86%29.90 "Hg19 mi
8:00 PM67 °FFog.1 mph84%29.88 "Hg4 mi
7:00 PM73 °FSunny.1 mph72%29.87 "Hg25 mi
6:00 PM76 °FSunny.2 mph64%29.87 "Hg22 mi
5:00 PM74 °FSunny.3 mph66%29.87 "Hg22 mi
4:00 PM77 °FPassing clouds.2 mph64%29.87 "Hg16 mi
3:00 PM76 °FScattered clouds.3 mph66%29.87 "Hg17 mi
2:00 PM76 °FScattered clouds.3 mph66%29.88 "Hg13 mi
Weather by CustomWeather, © 2014

See weather overviewHow to use our weather pages